DW5914 Weather Reports


Display with metric or nautical units.
time (UTC)temp
F
wind
direction
speed
MPH
gust
MPH
rain 1hr
in
rain 24hr
in
rain mn
in
humidity
%
barometer
mb
20260903090012 58 262 3.0 13.0 0.00 0.06 0.00 79 1008.0
20260903084511 58 148 2.0 11.0 0.00 0.06 0.00 80 1008.0
20260903083010 58 260 4.0 13.0 0.00 0.06 0.00 80 1007.9
20260903081508 58 117 2.0 12.0 0.00 0.06 0.00 80 1008.0
20260903080007 58 247 3.0 11.0 0.00 0.06 0.00 80 1008.1
20260903074506 58 159 2.0 12.0 0.00 0.06 0.00 80 1008.1
20260903073016 58 194 2.0 10.0 0.00 0.06 0.00 80 1008.2
20260903071504 58 255 3.0 13.0 0.00 0.06 0.00 81 1008.1
20260903070001 58 101 3.0 10.0 0.00 0.06 0.06 83 1008.1
20260903064600 57 216 2.0 11.0 0.00 0.06 0.06 84 1007.9
20260903063100 57 112 3.0 12.0 0.00 0.06 0.06 85 1007.8
20260903061608 57 173 3.0 13.0 0.00 0.06 0.06 85 1007.6
20260903054558 57 138 3.0 11.0 0.00 0.06 0.06 85 1007.6
20260903053107 57 68 3.0 16.0 0.00 0.06 0.06 85 1007.6
20260903051554 57 215 4.0 9.0 0.00 0.06 0.06 86 1007.5
20260903050053 58 169 4.0 14.0 0.00 0.06 0.06 85 1007.2
20260903044555 58 113 2.0 8.0 0.00 0.06 0.06 85 1007.5
20260903043052 58 176 2.0 9.0 0.00 0.06 0.06 85 1007.4
20260903041554 58 216 3.0 9.0 0.00 0.06 0.06 85 1007.2
20260903040050 58 176 3.0 13.0 0.00 0.06 0.06 85 1007.0
20260903034550 58 277 5.0 12.0 0.00 0.06 0.06 84 1006.5
20260903033052 58 221 5.0 12.0 0.00 0.06 0.06 83 1005.9
20260903031550 59 101 6.0 13.0 0.00 0.06 0.06 84 1005.5
20260903030108 59 69 4.0 12.0 0.00 0.06 0.06 84 1005.0
20260903024546 59 41 4.0 13.0 0.00 0.06 0.06 84 1004.5
20260903023046 59 238 5.0 14.0 0.00 0.06 0.06 85 1004.3
20260903021545 59 71 5.0 13.0 0.00 0.06 0.06 86 1003.8
20260903020045 59 332 6.0 18.0 0.00 0.06 0.06 86 1003.5
20260903014548 59 257 3.0 9.0 0.00 0.06 0.06 88 1003.5
20260903013045 58 157 2.0 13.0 0.01 0.06 0.06 90 1003.6
20260903011550 57 250 4.0 12.0 0.04 0.06 0.06 91 1003.7
20260903010041 57 11 4.0 15.0 0.05 0.06 0.06 91 1003.6
20260903004538 57 331 4.0 11.0 0.06 0.06 0.06 92 1003.8
20260903003040 57 113 3.0 8.0 0.05 0.05 0.05 91 1004.1
20260903001534 58 321 1.0 11.0 0.02 0.02 0.02 89 1004.4
20260903000032 58 68 4.0 13.0 0.01 0.01 0.01 87 1004.3
20260902234529 59 282 5.0 14.0 0.00 0.00 0.00 85 1004.3
20260902233029 60 284 3.0 8.0 0.00 0.00 0.00 82 1004.2
20260902231531 61 170 3.0 7.0 0.00 0.00 0.00 79 1004.2
20260902230027 62 150 3.0 12.0 0.00 0.00 0.00 76 1004.2
20260902224543 62 135 6.0 15.0 0.00 0.00 0.00 75 1004.1
20260902223027 63 234 8.0 17.0 0.00 0.00 0.00 73 1004.0
20260902221536 64 355 5.0 19.0 0.00 0.00 0.00 70 1004.0
20260902220046 64 194 3.0 13.0 0.00 0.00 0.00 70 1004.1
20260902214524 65 237 5.0 11.0 0.00 0.00 0.00 68 1004.2
20260902213022 65 121 4.0 13.0 0.00 0.00 0.00 69 1004.2
20260902211525 65 84 2.0 7.0 0.00 0.00 0.00 69 1004.3
20260902210023 67 326 5.0 12.0 0.00 0.00 0.00 64 1004.3
20260902204524 66 192 5.0 13.0 0.00 0.00 0.00 64 1004.3
20260902203020 67 161 4.0 12.0 0.00 0.00 0.00 64 1004.4
20260902201534 67 245 4.0 11.0 0.00 0.00 0.00 64 1004.5
20260902200016 67 339 2.0 16.0 0.00 0.00 0.00 64 1004.7
20260902194528 67 10 2.0 14.0 0.00 0.00 0.00 65 1005.0
20260902193034 67 257 3.0 15.0 0.00 0.00 0.00 64 1005.2
20260902191511 67 266 5.0 13.0 0.00 0.00 0.00 64 1005.4
20260902190012 67 121 4.0 10.0 0.00 0.00 0.00 65 1005.5
20260902184505 66 98 5.0 15.0 0.00 0.00 0.00 68 1005.7
20260902183003 66 212 2.0 9.0 0.00 0.00 0.00 70 1005.8
20260902181502 66 213 2.0 10.0 0.00 0.00 0.00 70 1005.9
20260902180004 65 92 4.0 14.0 0.00 0.00 0.00 69 1005.9
20260902174600 65 167 4.0 16.0 0.00 0.00 0.00 68 1006.0
20260902173112 65 113 4.0 13.0 0.00 0.00 0.00 70 1005.9
20260902171559 65 300 6.0 15.0 0.00 0.00 0.00 71 1006.0
20260902170053 65 240 6.0 13.0 0.00 0.00 0.00 72 1006.2
20260902164550 64 157 6.0 18.0 0.00 0.00 0.00 74 1006.5
20260902163057 63 205 3.0 19.0 0.00 0.00 0.00 77 1006.8
20260902161544 62 119 4.0 10.0 0.00 0.00 0.00 78 1006.9
20260902160042 61 197 4.0 14.0 0.00 0.00 0.00 80 1007.2
20260902154541 61 151 4.0 16.0 0.00 0.00 0.00 81 1007.2
20260902153050 60 63 5.0 17.0 0.00 0.00 0.00 83 1007.2
20260902151539 60 231 4.0 13.0 0.00 0.00 0.00 83 1007.1
20260902150037 60 88 5.0 13.0 0.00 0.00 0.00 84 1007.3
20260902144538 60 220 2.0 13.0 0.00 0.00 0.00 85 1007.3
20260902143035 60 142 3.0 11.0 0.00 0.00 0.00 85 1007.4
20260902141534 59 115 6.0 15.0 0.00 0.00 0.00 85 1007.3
20260902140032 59 86 6.0 20.0 0.00 0.00 0.00 85 1007.4
20260902134540 59 307 3.0 17.0 0.00 0.00 0.00 85 1007.3
20260902133031 59 103 4.0 13.0 0.00 0.00 0.00 86 1007.3
20260902131540 59 94 5.0 16.0 0.00 0.00 0.00 86 1007.3
20260902130029 59 128 3.0 15.0 0.00 0.00 0.00 85 1007.4
20260902124529 59 47 4.0 17.0 0.00 0.00 0.00 85 1007.4
20260902123032 60 170 4.0 16.0 0.00 0.00 0.00 85 1007.2
20260902121524 60 103 4.0 15.0 0.00 0.00 0.00 85 1007.5
20260902120021 60 155 2.0 8.0 0.00 0.00 0.00 85 1007.8
20260902114520 60 200 3.0 9.0 0.00 0.00 0.00 85 1008.1
20260902113018 60 175 4.0 7.0 0.00 0.00 0.00 85 1008.2
20260902111518 60 121 3.0 8.0 0.00 0.00 0.00 85 1008.3
20260902110020 60 211 2.0 9.0 0.00 0.00 0.00 84 1008.6
20260902104514 60 92 2.0 11.0 0.00 0.00 0.00 83 1008.7
20260902103012 60 302 1.0 8.0 0.00 0.00 0.00 82 1008.6
20260902101510 60 292 1.0 10.0 0.00 0.00 0.00 82 1008.8
20260902100009 60 40 0.0 6.0 0.00 0.00 0.00 81 1008.9
20260902094506 60 250 2.0 7.0 0.00 0.00 0.00 81 1009.2
20260902093005 60 94 2.0 12.0 0.00 0.00 0.00 82 1009.1
20260902091503 60 134 3.0 9.0 0.00 0.00 0.00 84 1009.3